www.pogodaiklimat.ru

Погода и климат >> Архив погоды >> Россия >> Удмуртия >> Ижевск


АРХИВ ПОГОДЫ в Ижевске

Время (UTC), дата Ветер
(напр.,м/с)
 
Видим.   Явления Облачность Т
(С)
Тd
(С)
f
(%)
Тe
(С)
Тes
(С)
Комфортность P
(гПа)
Po
(гПа)
Тmin
(С)
Tmax
(С)
R
(мм)
R24
(мм)
S
(см)
21 11.08 З 2-4
{5}
10 км 6/0
[Ac trans Ci fib]
+18.3 +15.1 82 +19 +19 тепло 1012.2 993.4
00 12.08 З 2-3
{4}
10 км 1/0
[Ci fib]
+16.1 +14.3 89 +16 +16 тепло 1012.3 993.3
03 12.08 штиль 0-2
{3}
10 км 6/0
[Ac trans Ci fib]
+17.5 +16.4 93 +17 +19 тепло 1012.4 993.6 +16.0
06 12.08 З 2-3
{4}
10 км 8/0
[Ac trans Ci fib]
+23.9 +15.9 61 +27 +33 жарко 1012.2 993.8
09 12.08 З 3-4
{8}
10 км 8/3 1500 м
[Cu med, cong Ac trans Ci fib]
+26.7 +13.7 45 +29 +33 жарко 1011.8 993.5
12 12.08 З 4-5
{9}
10 км 6/6 1500 м
[Cu med, cong]
+26.6 +12.1 41 +28 +30 жарко 1011.7 993.4
15 12.08 З 3-4
{7}
10 км 3/0
[Ac trans]
+25.6 +12.9 45 +27 +28 жарко 1010.9 992.6 +27.6
18 12.08 ЮЗ 1-2
{4}
10 км 3/0
[Ci fib]
+19.6 +12.7 64 +22 +22 комфорт 1011.4 992.7
21 12.08 штиль 0-1
{2}
10 км 4/0
[Ac trans]
+17.5 +12.5 72 +18 +18 тепло 1010.7 991.9
00 13.08 Ю 1-2
{3}
10 км 6/0
[Ac trans]
+16.2 +12.8 80 +17 +17 тепло 1010.5 991.6
03 13.08 штиль 0 10 км 6/0
[Ac trans]
+17.4 +13.5 78 +17 +19 тепло 1009.9 991.1 +15.9
06 13.08 Ю 3-4
{5}
10 км 9/0
[Ac trans]
+23.3 +16.9 67 +28 +31 душно 1009.0 990.4
09 13.08 З 4-6
{8}
10 км 6/0
[Ac trans Ci fib]
+27.1 +10.6 36 +28 +34 жарко 1007.8 989.6
12 13.08 ЮЗ 4-4
{8}
10 км 8/3 1500 м
[Cu hum Ac trans]
+28.2 +11.1 35 +29 +31 жарко 1006.9 988.8
15 13.08 ЮЗ 3-5
{7}
10 км 8/0
[Ac trans Ci fib]
+26.5 +13.4 44 +28 +29 жарко 1005.9 987.7 +28.5
18 13.08 ЮЗ 2-3
{5}
10 км 4/0
[Ac trans]
+22.0 +13.1 57 +25 +25 комфорт 1006.0 987.5
21 13.08 штиль 0-2
{3}
10 км 6/0
[Ac trans]
+18.4 +14.0 76 +19 +19 тепло 1005.6 987.0
00 14.08 штиль 0
{2}
10 км 6/0
[Ac trans]
+17.1 +14.1 83 +17 +17 тепло 1006.4 987.6
03 14.08 штиль 0-1
{2}
10 км 6/3 1500 м
[Cb calv Ac trans]
+14.6 +13.3 92 +14 +15 по сезону 1007.6 988.6 +14.1
06 14.08 СЗ 2-3
{4}
10 км 10/0
[Ac As Cs]
+19.3 +11.8 62 +21 +25 комфорт 1008.5 989.8
09 14.08 ЮЗ 1-2
{4}
10 км в посл. час ливневой дождь 10/6 1000 м
[Cb calv Ac As]
+19.9 +11.8 60 +23 +24 комфорт 1008.9 990.3
12 14.08 З 1-3
{5}
10 км {ливн. осадки} 10/3 1000 м
[Sc diur, vesp Ac As]
+20.1 +10.7 55 +23 +24 комфорт 1009.2 990.6
15 14.08 З 1-2
{5}
10 км 9/3 1000 м
[Sc Ac trans]
+18.5 +12.0 66 +20 +20 тепло 1009.4 990.7 +21.0 0.0
18 14.08 ЮЗ 1-2
{9}
10 км {гроза, ливн. осадки} 10/3 1000 м
[Cb calv Ac As]
+12.9 +12.2 96 +13 +13 по сезону 1011.3 992.2
21 14.08 З 1-2
{3}
10 км ясно +11.8 +11.2 96 +12 +12 по сезону 1012.0 992.7
00 15.08 СЗ 2-3
{4}
10 км ясно +11.0 +10.3 95 +10 +10 по сезону 1013.2 993.8
03 15.08 З 1-2
{4}
10 км ясно +11.1 +10.5 96 +11 +13 прохладно 1014.1 994.8 +10.1 8
06 15.08 СЗ 2-3
{4}
10 км ясно +17.3 +12.1 71 +18 +26 тепло 1014.6 995.7
09 15.08 З 4-6
{9}
10 км 6/6 1000 м
[Cu med, cong]
+20.7 +11.8 57 +23 +26 комфорт 1014.5 995.8
12 15.08 СЗ 4-6
{9}
10 км 10/4 1000 м
[Cu med, cong Ac trans Cc]
+20.5 +11.7 57 +23 +24 комфорт 1015.3 996.6
15 15.08 З 2-4
{6}
10 км 9/1 1000 м
[Sc diur, vesp Ac trans Ci fib]
+20.3 +11.0 55 +23 +23 комфорт 1015.1 996.4 +22.0
18 15.08 штиль 0-2
{4}
10 км 6/0
[Ac trans Ci fib]
+14.2 +11.4 83 +14 +14 по сезону 1015.8 996.7
21 15.08 штиль 0-2
{3}
10 км 6/0
[Ac trans]
+12.2 +10.3 88 +12 +12 по сезону 1015.8 996.6
00 16.08 штиль 0-2
{3}
10 км 9/0
[Ac trans]
+11.8 +10.4 91 +11 +11 по сезону 1014.5 995.6
03 16.08 Ю 3-5
{6}
10 км слабый ливневой дождь 10/4 1000 м
[Cb calv Ac As]
+15.5 +10.9 74 +15 +15 по сезону 1013.8 994.7 +11.6 0.0
06 16.08 Ю 2-5
{7}
10 км слабый ливневой дождь 9/4 1000 м
[Cb calv Ac trans]
+16.2 +12.6 79 +16 +19 по сезону 1010.7 991.8
09 16.08 ЮЗ 4-6
{10}
10 км {ливн. осадки} 9/3 1000 м
[Cb calv Ac trans]
+19.8 +14.9 73 +22 +24 комфорт 1009.6 991.0
12 16.08 З 4-5
{7}
10 км {ливн. осадки} 9/3 1000 м
[Cb calv Ac trans]
+22.6 +16.4 68 +27 +28 душно 1009.2 990.7
15 16.08 З 6-9
{11}
10 км гроза, ливневой дождь 9/6 1000 м
[Cb calv Ac trans]
+21.7 +15.1 66 +25 +25 комфорт 1009.5 991.0 +24.2 1
18 16.08 СЗ 4-6
{9}
10 км {гроза, ливн. осадки} 9/0
[Ac trans]
+16.4 +13.5 83 +16 +16 тепло 1011.3 992.4
21 16.08 СЗ 3-4
{6}
10 км 9/0
[Ac trans]
+14.2 +11.8 85 +13 +13 по сезону 1013.5 994.4
00 17.08 СЗ 2-2
{4}
10 км 9/0
[Ac trans]
+12.2 +10.5 89 +11 +11 по сезону 1015.0 995.8
03 17.08 СЗ 2-3
{5}
10 км 6/0
[Ac trans Ci fib]
+12.2 +10.6 90 +11 +12 прохладно 1016.9 997.6 +11.9 4
06 17.08 СЗ 3-5
{7}
10 км 3/3 1000 м
[Cu hum]
+15.3 +9.3 67 +15 +20 по сезону 1018.0 998.8
09 17.08 С 4-6
{9}
10 км 6/6 1000 м
[Cu med, cong]
+17.5 +6.4 48 +17 +20 по сезону 1018.4 999.4
12 17.08 С 3-6
{9}
10 км 9/4 1000 м
[Sc diur, vesp Ac trans]
+17.9 +5.3 43 +18 +19 прохладно 1018.6 999.6
15 17.08 СЗ 3-5
{11}
10 км слабый ливневой дождь 9/6 1000 м
[Cb cap Ac trans]
+13.5 +10.6 83 +12 +12 холодно 1019.6 1000.3 +19.3 0.1
18 17.08 СЗ 2-3
{5}
10 км {ливн. осадки} 6/0
[Ac trans]
+10.5 +9.5 94 +9 +9 холодно 1019.8 1000.3
21 17.08 СЗ 2-3
{3}
10 км 1/0
[Ac trans]
+8.2 +7.6 96 +6 +6 холодно 1019.9 1000.3
00 18.08 штиль 0-2
{4}
10 км 1/0
[Ac trans]
+7.7 +7.0 95 +7 +7 прохладно 1021.2 1001.5
03 18.08 штиль 0-2
{3}
10 км местами туман поземный 1/0
[Ac trans]
+7.3 +6.8 97 +6 +8 очень
холодно
1022.3 1002.5 +6.0 0.0
06 18.08 С 2-5
{7}
10 км 4/3 1000 м
[Cu hum Ac trans]
+13.2 +8.0 71 +13 +18 прохладно 1022.3 1002.9
09 18.08 С 3-6
{8}
10 км 6/6 1000 м
[Sc]
+15.0 +5.0 51 +14 +18 прохладно 1021.5 1002.3
12 18.08 С 2-4
{7}
10 км 9/6 1000 м
[Sc Ac trans]
+15.0 +5.8 54 +15 +16 холодно 1021.5 1002.3
15 18.08 С 2-4
{6}
10 км 9/0
[Ac trans]
+13.8 +5.3 56 +13 +14 прохладно 1022.0 1002.6 +17.6
18 18.08 штиль 0-2
{4}
10 км 8/0
[Ac trans]
+11.1 +6.7 74 +11 +11 прохладно 1022.7 1003.1

 

Местоположение метеостанции Ижевск (Удмуртия, Россия): широта 56.83 долгота 53.45 высота над уровнем моря 159 м.

В архиве по умолчанию представлена погода в Ижевске за последнюю неделю. Архивные данные за месяц целиком и за предыдущие месяцы, начиная с января 2011 года, Вы можете получить, выбрав интересующий диапазон дат из раскрывающегося списка и нажав кнопку "Ввод!".


*Определитесь, кто Вы:
робот инопланетянин человек

Внимание! Время в таблицах - всемирное. Для получения местного времени необходимо прибавить поправку, которая в Ижевске равна 4 ч.

Смотрите также архив погоды в соседних городах и на ближайших метеорологических станциях:

Погода в Воткинске (Удмуртия, Россия) (38 км)
Погода в Чайковском (Пермский край, Россия) (39 км)
Погода в Сарапуле (Удмуртия, Россия) (44 км)
Погода в Игре (Удмуртия, Россия) (83 км)
Погода в Ножовке (Пермский край, Россия) (84 км)
Погода в Можге (Удмуртия, Россия) (88 км)
Погода в Дебесах (Удмуртия, Россия) (92 км)
Погода в Селтах (Удмуртия, Россия) (94 км)
Погода в Янауле (Башкирия, Россия) (109 км)
Погода в Мензелинске (Татарстан, Россия) (126 км)

Пояснения к столбцам:

Ветер - указаны скорость ветра в м/с - средняя за 10 мин, порывы в срок и между сроками (в фигурных скобках) и направление, откуда дует ветер: С - северный, СВ - северо-восточный, В - восточный, ЮВ - юго-восточный, Ю - южный, ЮЗ - юго-западный, З - западный, СЗ - северо-западный.
Видимость - горизонтальная дальность видимости в метрах или километрах. При видимости от 1 до 10 км при отсутствии осадков обычно наблюдается дымка, при ухудшении видимости до 1 км и менее - туман. В сухую погоду видимость может ухудшаться дымом, пылью или мглою.
Явления - указаны атмосферные явления, наблюдавшиеся в срок или в последний час перед сроком; фигурными скобками обозначены явления, наблюдавшиеся между сроками (за 1-3 часа до срока); квадратными скобками обозначены град или гололедные отложения с указанием их диаметра в мм.
Облачность - указаны через наклонную черту общая и нижняя облачность в баллах и высота нижней границы облаков в метрах; квадратными скобками обозначены формы облаков: Ci - перистые, Cs - перисто-слоистые, Cc - перисто-кучевые, Ac - высококучевые, As - высокослоистые, Sc - слоисто-кучевые, Ns - слоисто-дождевые, Cu - кучевые, Cb - кучево-дождевые. Подробнее классификацию облаков см. в Атласе облаков (PDF).
T - Температура воздуха - температура, измеренная на высоте 2 м над землей.
Td - Температура точки росы - температура, при понижении до которой содержащийся в воздухе водяной пар достигнет насыщения.
f - Относительная влажность воздуха - влажноcть воздуха, измеренная на высоте 2 м над землей.
Te - Эффективная температура - температура, которую ощущает одетый по сезону человек в тени. Характеристика душности погоды. При расчете учитывается влияние влажности воздуха и скорости ветра на теплоощущения человека.
Tes - Эффективная температура на солнце - температура, которую ощущает человек, с поправкой на солнечный нагрев. Характеристика знойности погоды. Зависит от высоты солнца над горизонтом, облачности и скорости ветра. Ночью, в пасмурную погоду, а также при ветре 12 м/с и более поправка равна нулю.
P - Атмосферное давление - приведенное к уровню моря атмосферное давление.
Po - Атмосферное давление - измеренное на уровне метеостанции атмосферное давление.
Tmin - Минимальная температура - минимум температуры воздуха на высоте 2 м над землей.
Tmax - Максимальная температура - максимум температуры воздуха на высоте 2 м над землей.
R - Количество осадков - Количество выпавших осадков за период времени, мм. При наведении курсора мыши на число - период времени, за который выпало указанное количество осадков.
R24 - Количество осадков - Количество выпавших осадков за 24 часа, мм.
S - Снежный покров - Высота снежного покрова, см. При наведении курсора мыши на число - состояние снежного покрова и степень покрытия местности в баллах.